Location: Camerons Lookout
(40.9833°S, 175.9333°E)
Time: 21:07:38
(UTC+00:00)

Cosmos 44 Rocket - Pass Details

Date: 14 January 2026
Orbit: 633 x 745 km, 65.1° (Epoch: 17 February)

Event Time Altitude Azimuth Distance (km) Brightness Sun altitude
Rises 11:27:17 0° 211° (SSW) 2,977 7.8 -26.3°
Reaches altitude 10° 11:29:37 10° 208° (SSW) 2,054 6.7 -26.4°
Enters shadow 11:33:48 65° 164° (SSE) 709 3.4 -26.6°
